          23 12  09 34.82  +11 29.5   1.246  1.461    62.4 / 101  18.1   75  .00

          24 12  09 38.99  +11 17.8   1.260  1.472    61.6 / 101  18.2   62  .02

          25 12  09 43.09  +11 05.9   1.274  1.483    60.7 / 101  18.2   49  .07

          26 12  09 47.14  +10 53.9   1.288  1.495    59.9 / 102  18.3   36  .14

          27 12  09 51.12  +10 41.8   1.303  1.506    59.1 / 102  18.4   23  .23

          28 12  09 55.04  +10 29.6   1.318  1.517    58.3 / 102  18.4   11  .34

          29 12  09 58.90  +10 17.3   1.333  1.529    57.5 / 102  18.5    8  .45

          30 12  10 02.70  +10 05.0   1.348  1.540    56.7 / 103  18.5   19  .57

          31 12  10 06.44  +09 52.6   1.363  1.552    55.9 / 103  18.6   31  .68

     June  1 12  10 10.13  +09 40.1   1.379  1.563    55.1 / 103  18.6   44  .78

           2 12  10 13.76  +09 27.6   1.395  1.575    54.4 / 103  18.7   57  .86

           3 12  10 17.33  +09 15.1   1.411  1.587    53.6 / 103  18.8   69  .93

           4 12  10 20.85  +09 02.5   1.427  1.598    52.9 / 104  18.8   81  .97

           5 12  10 24.32  +08 49.9   1.444  1.610    52.2 / 104  18.9   94 1.00

           6 12  10 27.74  +08 37.3   1.461  1.622    51.5 / 104  18.9  105 1.00

           7 12  10 31.10  +08 24.7   1.477  1.634    50.8 / 104  19.0  117  .98

           8 12  10 34.42  +08 12.1   1.495  1.645    50.1 / 104  19.0  129  .94

           9 12  10 37.69  +07 59.5   1.512  1.657    49.5 / 105  19.1  140  .89

          10 12  10 40.91  +07 46.9   1.529  1.669    48.8 / 105  19.1  151  .82

          11 12  10 44.09  +07 34.4   1.547  1.681    48.2 / 105  19.2  162  .74

          12 12  10 47.22  +07 21.8   1.565  1.693    47.6 / 105  19.3  172  .65

          13 12  10 50.30  +07 09.3   1.583  1.705    47.0 / 105  19.3  173  .56

          14 12  10 53.35  +06 56.8   1.601  1.716    46.4 / 106  19.4  164  .47

          15 12  10 56.35  +06 44.3   1.619  1.728    45.8 / 106  19.4  153  .37





 ところで,3D/Bielaとの同定の可能性ですが,たとえば,B核の私の次の予報

軌道(この核の方が多少,近日点通過が遅くなる)の軌道長半径を使用して,



  T= 1999 Jan, q= 0.824 AU, e= 0.767, Peri.= 268.46, Node= 200.83, Inc.= 8.07



長半径を固定して軌道改良を行なうと,下の軌道が得られます.なお,多分,1852年

には,A核の方が明るかったものと思われますが,明るいものが大きい核とは,

限りません.たとえ大きくとも,多量のガスを放出したため,早く,小さくなる

こともありえます.



    C/2001 J1 (NEAT); a-assumed orbit.

T 2001 Mar. 13.36989 TT                                 Nakano

q   0.9293246            (2000.0)            P               Q

n   0.14845347     Peri.  269.97553     -0.35385513     -0.93316053

a   3.5324483      Node   201.09112     +0.91273559     -0.32976816

e   0.7369177      Incl.   10.11995     +0.20420649     -0.14305379

P   6.64

From 52 observations 2001 May 11-19.



NAKANO

         **** Don't distribute anyone except personal use only ****

                (C) Copyright 2001 OAA/ComputingSection

write mail from CFAD0::NAKANO on 2001-05-21 04:48:54(JST).

 

◎C/2001 J1の軌道と予報位置です



 3D/Bielaと同定できる可能性があります.ぜひ,追跡観測してください.



    C/2001 J1 (NEAT) 

T 2001 Mar. 19.88859 TT                                 Nakano

q   1.0010408            (2000.0)            P               Q

                   Peri.  278.65636     -0.44210019     -0.89519356

                   Node   197.91093     +0.87805149     -0.41908818

e   1.0            Incl.   10.55892     +0.18322938     -0.15163639

From 32 observations 2001 May 11-15.

 

Date/        TT  R.A.(2000) Decl.     Delta   r     Daily motion  Mag.  Moon Age

              h    h  m       。  ,                      ,  / PA 。  m1      。

2001 May  15 12  08 59.14  +12 57.2   1.149  1.375    69.3 /  98  16.7  166  .49

          16 12  09 03.82  +12 47.0   1.160  1.386    68.4 /  99  16.7  156  .40

          17 12  09 08.44  +12 36.6   1.172  1.397    67.5 /  99  16.8  145  .31

          18 12  09 13.00  +12 25.9   1.185  1.408    66.6 /  99  16.9  134  .22

          19 12  09 17.48  +12 15.0   1.197  1.419    65.7 / 100  16.9  123  .14

          20 12  09 21.90  +12 04.0   1.210  1.430    64.8 / 100  17.0  112  .08

          21 12  09 26.25  +11 52.7   1.223  1.441    64.0 / 100  17.0  100  .03

          22 12  09 30.54  +11 41.3   1.237  1.452    63.1 / 100  17.1   87  .01

          23 12  09 34.76  +11 29.7   1.250  1.464    62.2 / 101  17.1   75  .00

          24 12  09 38.91  +11 18.0   1.264  1.475    61.4 / 101  17.2   62  .02

          25 12  09 43.01  +11 06.2   1.279  1.486    60.5 / 101  17.3   49  .07

          26 12  09 47.04  +10 54.2   1.293  1.498    59.7 / 102  17.3   36  .14

          27 12  09 51.00  +10 42.2   1.308  1.509    58.9 / 102  17.4   23  .23

          28 12  09 54.91  +10 30.0   1.323  1.521    58.0 / 102  17.4   10  .34

          29 12  09 58.76  +10 17.8   1.338  1.532    57.2 / 102  17.5    8  .45

          30 12  10 02.54  +10 05.5   1.353  1.544    56.4 / 103  17.5   19  .57

          31 12  10 06.27  +09 53.1   1.369  1.556    55.7 / 103  17.6   31  .68

     June  1 12  10 09.94  +09 40.7   1.385  1.567    54.9 / 103  17.7   44  .78

           2 12  10 13.56  +09 28.3   1.401  1.579    54.1 / 103  17.7   57  .86

           3 12  10 17.11  +09 15.8   1.417  1.591    53.4 / 103  17.8   69  .93

           4 12  10 20.62  +09 03.3   1.434  1.602    52.7 / 104  17.8   82  .97

           5 12  10 24.07  +08 50.8   1.450  1.614    51.9 / 104  17.9   94 1.00

           6 12  10 27.47  +08 38.3   1.467  1.626    51.2 / 104  17.9  105 1.00

           7 12  10 30.82  +08 25.8   1.484  1.638    50.6 / 104  18.0  117  .98

           8 12  10 34.12  +08 13.2   1.502  1.650    49.9 / 104  18.1  129  .94

           9 12  10 37.37  +08 00.7   1.519  1.662    49.2 / 105  18.1  140  .89

          10 12  10 40.58  +07 48.2   1.537  1.674    48.6 / 105  18.2  151  .82

          11 12  10 43.74  +07 35.7   1.554  1.685    48.0 / 105  18.2  162  .74

          12 12  10 46.85  +07 23.2   1.572  1.697    47.3 / 105  18.3  172  .65

          13 12  10 49.92  +07 10.8   1.591  1.709    46.7 / 105  18.3  173  .56

          14 12  10 52.95  +06 58.3   1.609  1.721    46.2 / 106  18.4  164  .47

          15 12  10 55.94  +06 46.0   1.627  1.733    45.6 / 106  18.4  152  .37

NAKANO

         **** Don't distribute anyone except personal use only ****

                (C) Copyright 2001 OAA/ComputingSection

write mail from CFAD0::NAKANO on 2001-05-17 05:02:47(JST).

 

戻ります。